Location: Eaton
(41.3139°N, 82.0207°W)
Time: 08:43:58
(UTC+00:00)

Cosmos 389 Rocket - Pass Details

Date: 17 June 2021
Orbit: 440 x 471 km, 81.1° (Epoch: 27 July)

Event Time Altitude Azimuth Distance (km) Brightness Sun altitude
Rises 04:13:40 0° 353° (N) 2,442 7.5 -23.0°
Reaches altitude 10° 04:15:45 10° 356° (N) 1,569 6.2 -23.1°
Enters shadow 04:18:23 48° 17° (NNE) 589 3.2 -23.3°
